SLAM87 KRIV-KRIV

Flight info

Callsign SLAM87
Flight time 1h 31m
Altitude 28000
Route PDZ POM PMD WIJYI CHADS/D0130 SWLL ROSIE PMD MARCH4
Aircraft C17/H-VGDW/C

Departure

Time 2026-05-08 06:17
Airport March Air Reserve Base (KRIV)

Arrival

Time 2026-05-08 07:48
Airport March Air Reserve Base (KRIV)
Time Latitude Longitude Altitude Speed Heading
2026-05-08 05:56 33.88744 -117.24930 1510 ft 0 kts 313°
2026-05-08 06:12 33.88773 -117.24971 1514 ft 13 kts 301°
2026-05-08 06:13 33.88754 -117.25068 1513 ft 16 kts 225°
2026-05-08 06:13 33.88647 -117.25197 1513 ft 25 kts 218°
2026-05-08 06:13 33.88541 -117.25149 1510 ft 18 kts 137°
2026-05-08 06:13 33.88432 -117.25022 1512 ft 27 kts 135°
2026-05-08 06:14 33.88280 -117.24846 1510 ft 31 kts 150°
2026-05-08 06:14 33.88091 -117.24894 1508 ft 29 kts 206°
2026-05-08 06:14 33.87918 -117.24997 1507 ft 27 kts 206°
2026-05-08 06:14 33.87755 -117.25094 1507 ft 25 kts 206°
2026-05-08 06:15 33.87606 -117.25182 1513 ft 22 kts 202°
2026-05-08 06:15 33.87440 -117.25156 1511 ft 29 kts 153°
2026-05-08 06:15 33.87235 -117.25019 1516 ft 38 kts 151°
2026-05-08 06:15 33.86977 -117.24849 1514 ft 46 kts 152°
2026-05-08 06:16 33.86714 -117.24678 1512 ft 27 kts 151°
2026-05-08 06:16 33.86566 -117.24709 1511 ft 24 kts 242°
2026-05-08 06:16 33.86573 -117.24876 1512 ft 19 kts 324°
2026-05-08 06:16 33.86807 -117.25045 1516 ft 82 kts 329°
2026-05-08 06:17 33.88696 -117.26378 2230 ft 210 kts 329°
2026-05-08 06:17 33.90040 -117.27377 3023 ft 241 kts 323°
2026-05-08 06:17 33.91150 -117.28906 3766 ft 247 kts 300°
2026-05-08 06:18 33.91579 -117.30927 4226 ft 258 kts 273°
2026-05-08 06:18 33.91473 -117.33133 4549 ft 269 kts 266°
2026-05-08 06:18 33.91387 -117.35414 4904 ft 276 kts 270°
2026-05-08 06:18 33.91400 -117.37739 5251 ft 280 kts 272°
2026-05-08 06:19 33.91514 -117.40057 5585 ft 282 kts 276°
2026-05-08 06:19 33.91609 -117.42424 5936 ft 284 kts 271°
2026-05-08 06:19 33.91584 -117.44805 6288 ft 285 kts 270°
2026-05-08 06:19 33.91560 -117.47182 6749 ft 284 kts 270°
2026-05-08 06:20 33.91522 -117.49647 7475 ft 305 kts 269°
2026-05-08 06:20 33.91460 -117.52219 8483 ft 305 kts 271°
2026-05-08 06:20 33.91807 -117.54688 9341 ft 300 kts 294°
2026-05-08 06:20 33.92993 -117.56763 9798 ft 308 kts 314°
2026-05-08 06:21 33.94433 -117.58728 10240 ft 318 kts 311°
2026-05-08 06:21 33.95773 -117.60850 10724 ft 325 kts 309°
2026-05-08 06:21 33.97150 -117.63034 11256 ft 330 kts 310°
2026-05-08 06:21 33.98558 -117.65228 11835 ft 332 kts 310°
2026-05-08 06:22 33.99983 -117.67422 12452 ft 333 kts 310°
2026-05-08 06:22 34.01411 -117.69610 13125 ft 332 kts 310°
2026-05-08 06:22 34.02842 -117.71795 13715 ft 335 kts 311°
2026-05-08 06:22 34.04514 -117.73849 13677 ft 353 kts 323°
2026-05-08 06:23 34.06631 -117.75496 13542 ft 370 kts 333°
2026-05-08 06:23 34.08855 -117.77017 13895 ft 375 kts 333°
2026-05-08 06:23 34.11130 -117.78584 14211 ft 378 kts 333°
2026-05-08 06:23 34.13426 -117.80163 14572 ft 381 kts 333°
2026-05-08 06:24 34.15739 -117.81723 14953 ft 382 kts 334°
2026-05-08 06:24 34.18099 -117.83206 15345 ft 382 kts 336°
2026-05-08 06:24 34.20504 -117.84579 15758 ft 386 kts 338°
2026-05-08 06:24 34.22988 -117.85899 16311 ft 391 kts 339°
2026-05-08 06:25 34.25485 -117.87219 17054 ft 392 kts 339°
2026-05-08 06:25 34.27980 -117.88547 17835 ft 391 kts 339°
2026-05-08 06:25 34.30432 -117.89855 18611 ft 389 kts 339°
2026-05-08 06:25 34.32901 -117.91169 19361 ft 386 kts 339°
2026-05-08 06:26 34.35348 -117.92473 20152 ft 382 kts 339°
2026-05-08 06:26 34.37767 -117.93768 20971 ft 379 kts 339°
2026-05-08 06:26 34.40188 -117.95066 21592 ft 382 kts 339°
2026-05-08 06:26 34.42619 -117.96367 22269 ft 382 kts 339°
2026-05-08 06:27 34.45046 -117.97667 22974 ft 381 kts 339°
2026-05-08 06:27 34.47461 -117.98960 23759 ft 379 kts 339°
2026-05-08 06:27 34.49828 -118.00228 24421 ft 376 kts 339°
2026-05-08 06:27 34.52230 -118.01516 24955 ft 379 kts 339°
2026-05-08 06:28 34.54657 -118.02815 25509 ft 383 kts 339°
2026-05-08 06:28 34.57104 -118.04127 26091 ft 386 kts 338°
2026-05-08 06:28 34.59446 -118.05767 26621 ft 394 kts 326°
2026-05-08 06:28 34.61533 -118.07992 26989 ft 404 kts 319°
2026-05-08 06:29 34.63633 -118.10310 27270 ft 412 kts 321°
2026-05-08 06:29 34.65795 -118.12608 27476 ft 412 kts 321°
2026-05-08 06:29 34.67928 -118.14861 27705 ft 412 kts 321°
2026-05-08 06:29 34.70086 -118.17142 27925 ft 411 kts 321°
2026-05-08 06:30 34.72241 -118.19421 28171 ft 410 kts 321°
2026-05-08 06:30 34.74390 -118.21693 28435 ft 409 kts 321°
2026-05-08 06:30 34.76522 -118.23972 28658 ft 408 kts 319°
2026-05-08 06:30 34.78542 -118.26465 28426 ft 422 kts 314°
2026-05-08 06:31 34.80509 -118.29165 28177 ft 420 kts 313°
2026-05-08 06:31 34.82352 -118.31816 28105 ft 406 kts 312°
2026-05-08 06:31 34.85999 -118.37175 28099 ft 420 kts 311°
2026-05-08 06:32 34.89704 -118.42645 28082 ft 418 kts 311°
2026-05-08 06:32 34.93419 -118.48124 28155 ft 420 kts 311°
2026-05-08 06:33 34.97189 -118.53527 28158 ft 416 kts 320°
2026-05-08 06:33 34.99523 -118.55495 28177 ft 413 kts 336°
2026-05-08 06:33 35.02187 -118.56776 28200 ft 412 kts 343°
2026-05-08 06:34 35.07721 -118.58546 28196 ft 410 kts 350°
2026-05-08 06:34 35.13315 -118.59795 28195 ft 409 kts 353°
2026-05-08 06:35 35.16146 -118.60121 28093 ft 409 kts 358°
2026-05-08 06:35 35.18993 -118.60230 28088 ft 409 kts
2026-05-08 06:35 35.24628 -118.60243 28086 ft 407 kts
2026-05-08 06:36 35.30301 -118.60187 28089 ft 408 kts
2026-05-08 06:36 35.35972 -118.60081 28081 ft 407 kts
2026-05-08 06:37 35.41608 -118.59498 28097 ft 407 kts
2026-05-08 06:37 35.47187 -118.58345 28100 ft 407 kts 11°
2026-05-08 06:38 35.52711 -118.57049 28100 ft 407 kts 12°
2026-05-08 06:38 35.58259 -118.55709 28110 ft 406 kts 12°
2026-05-08 06:39 35.63702 -118.54308 28103 ft 381 kts 16°
2026-05-08 06:39 35.66121 -118.53255 27799 ft 360 kts 21°
2026-05-08 06:39 35.68482 -118.52202 25037 ft 378 kts 18°
2026-05-08 06:40 35.71025 -118.51262 22461 ft 380 kts 16°
2026-05-08 06:40 35.73557 -118.50519 19954 ft 370 kts 13°
2026-05-08 06:40 35.76026 -118.49818 17446 ft 358 kts 15°
2026-05-08 06:40 35.78409 -118.49041 14906 ft 348 kts 16°
2026-05-08 06:41 35.80713 -118.48260 12365 ft 339 kts 15°
2026-05-08 06:41 35.82940 -118.47500 10031 ft 324 kts 14°
2026-05-08 06:41 35.85122 -118.46781 7545 ft 339 kts 12°
2026-05-08 06:41 35.87584 -118.46405 5618 ft 369 kts 352°
2026-05-08 06:42 35.89882 -118.47371 5093 ft 343 kts 328°
2026-05-08 06:42 35.91821 -118.49007 4617 ft 334 kts 335°
2026-05-08 06:42 35.94038 -118.48900 5198 ft 340 kts 18°
2026-05-08 06:42 35.96414 -118.48103 4838 ft 356 kts
2026-05-08 06:43 35.98921 -118.48067 5049 ft 367 kts
2026-05-08 06:43 36.01426 -118.47206 5184 ft 381 kts 15°
2026-05-08 06:43 36.03980 -118.46783 5341 ft 363 kts
2026-05-08 06:43 36.06518 -118.46722 5365 ft 371 kts
2026-05-08 06:44 36.09010 -118.45944 5797 ft 377 kts 14°
2026-05-08 06:44 36.11463 -118.44902 6040 ft 367 kts 28°
2026-05-08 06:44 36.13403 -118.42928 6057 ft 379 kts 53°
2026-05-08 06:44 36.14817 -118.40076 5781 ft 388 kts 53°
2026-05-08 06:45 36.16731 -118.37846 5788 ft 368 kts 33°
2026-05-08 06:45 36.18956 -118.36419 6084 ft 353 kts 27°
2026-05-08 06:45 36.20674 -118.34459 7296 ft 344 kts 66°
2026-05-08 06:45 36.21234 -118.31544 8911 ft 358 kts 72°
2026-05-08 06:46 36.22579 -118.28818 9994 ft 382 kts 46°
2026-05-08 06:46 36.24437 -118.26440 10412 ft 388 kts 50°
2026-05-08 06:46 36.26100 -118.23772 10375 ft 405 kts 52°
2026-05-08 06:46 36.27864 -118.20960 10239 ft 420 kts 52°
2026-05-08 06:47 36.29646 -118.18144 10271 ft 404 kts 50°
2026-05-08 06:47 36.31389 -118.15535 10600 ft 382 kts 50°
2026-05-08 06:47 36.33117 -118.13138 10885 ft 364 kts 47°
2026-05-08 06:47 36.34815 -118.10894 10643 ft 350 kts 38°
2026-05-08 06:48 36.36876 -118.09238 8094 ft 371 kts 33°
2026-05-08 06:48 36.38552 -118.06702 6191 ft 392 kts 73°
2026-05-08 06:48 36.39430 -118.03508 4494 ft 395 kts 64°
2026-05-08 06:48 36.40994 -118.00900 4504 ft 372 kts 47°
2026-05-08 06:49 36.43020 -117.98964 4865 ft 378 kts 22°
2026-05-08 06:49 36.45613 -117.98346 5086 ft 388 kts
2026-05-08 06:49 36.48307 -117.98189 5056 ft 384 kts
2026-05-08 06:49 36.50947 -117.97979 5023 ft 377 kts
2026-05-08 06:50 36.53542 -117.97744 4985 ft 371 kts
2026-05-08 06:50 36.56100 -117.97510 4950 ft 366 kts
2026-05-08 06:50 36.58630 -117.97457 4825 ft 361 kts 354°
2026-05-08 06:50 36.61005 -117.98263 4854 ft 350 kts 336°
2026-05-08 06:51 36.63177 -117.99526 4922 ft 338 kts 335°
2026-05-08 06:51 36.65242 -118.00744 5178 ft 333 kts 334°
2026-05-08 06:51 36.67388 -118.01986 5419 ft 347 kts 335°
2026-05-08 06:51 36.69633 -118.03182 5342 ft 354 kts 337°
2026-05-08 06:52 36.71916 -118.04390 5255 ft 359 kts 336°
2026-05-08 06:52 36.74221 -118.05617 5240 ft 361 kts 336°
2026-05-08 06:52 36.76542 -118.06818 5373 ft 361 kts 338°
2026-05-08 06:52 36.78863 -118.07996 5341 ft 360 kts 338°
2026-05-08 06:53 36.81176 -118.09184 5384 ft 360 kts 338°
2026-05-08 06:53 36.83456 -118.10364 5579 ft 355 kts 336°
2026-05-08 06:53 36.85649 -118.11653 6059 ft 344 kts 333°
2026-05-08 06:53 36.87742 -118.13074 6308 ft 342 kts 330°
2026-05-08 06:54 36.89816 -118.14522 6458 ft 341 kts 331°
2026-05-08 06:54 36.91910 -118.15909 6608 ft 341 kts 332°
2026-05-08 06:54 36.94026 -118.17241 6736 ft 340 kts 335°
2026-05-08 06:54 36.96229 -118.18386 6614 ft 347 kts 339°
2026-05-08 06:55 36.98528 -118.19358 6578 ft 351 kts 343°
2026-05-08 06:55 37.00878 -118.20092 6582 ft 353 kts 347°
2026-05-08 06:55 37.03281 -118.20629 6744 ft 346 kts 357°
2026-05-08 06:55 37.05553 -118.20100 7404 ft 329 kts 23°
2026-05-08 06:56 37.07329 -118.18289 7778 ft 340 kts 57°
2026-05-08 06:56 37.08059 -118.15472 8222 ft 347 kts 90°
2026-05-08 06:56 37.07504 -118.12569 8886 ft 343 kts 120°
2026-05-08 06:56 37.06300 -118.09905 8825 ft 369 kts 115°
2026-05-08 06:57 37.05686 -118.06564 8613 ft 434 kts 93°
2026-05-08 06:57 37.06735 -118.03163 8798 ft 421 kts 45°
2026-05-08 06:57 37.08848 -118.00627 7432 ft 413 kts 63°
2026-05-08 06:57 37.09298 -117.97276 6563 ft 394 kts 91°
2026-05-08 06:58 37.09133 -117.93731 5784 ft 415 kts 91°
2026-05-08 06:58 37.09868 -117.90477 5443 ft 379 kts 62°
2026-05-08 06:58 37.11332 -117.87776 4799 ft 381 kts 44°
2026-05-08 06:58 37.13304 -117.85397 4322 ft 388 kts 51°
2026-05-08 06:59 37.14838 -117.82852 4236 ft 351 kts 57°
2026-05-08 06:59 37.15717 -117.80158 4041 ft 323 kts 84°
2026-05-08 06:59 37.15482 -117.77513 3914 ft 310 kts 110°
2026-05-08 06:59 37.14625 -117.74959 3910 ft 326 kts 114°
2026-05-08 07:00 37.13693 -117.72302 4007 ft 340 kts 116°
2026-05-08 07:00 37.12617 -117.69635 4139 ft 345 kts 119°
2026-05-08 07:00 37.11276 -117.67157 4380 ft 343 kts 135°
2026-05-08 07:00 37.09313 -117.65487 4593 ft 344 kts 155°
2026-05-08 07:01 37.07057 -117.64294 4837 ft 361 kts 156°
2026-05-08 07:01 37.04771 -117.62897 5042 ft 365 kts 157°
2026-05-08 07:01 37.02303 -117.62532 5393 ft 363 kts 186°
2026-05-08 07:01 36.99863 -117.63293 5624 ft 373 kts 199°
2026-05-08 07:02 36.97382 -117.64397 5850 ft 384 kts 200°
2026-05-08 07:02 36.94881 -117.65600 6064 ft 382 kts 202°
2026-05-08 07:02 36.92480 -117.67000 5782 ft 381 kts 208°
2026-05-08 07:02 36.90256 -117.68730 5508 ft 374 kts 214°
2026-05-08 07:03 36.88156 -117.70591 5288 ft 367 kts 215°
2026-05-08 07:03 36.86095 -117.72416 5076 ft 360 kts 215°
2026-05-08 07:03 36.84056 -117.74200 4776 ft 355 kts 214°
2026-05-08 07:03 36.82032 -117.75865 4522 ft 353 kts 208°
2026-05-08 07:04 36.79718 -117.76923 3940 ft 360 kts 191°
2026-05-08 07:04 36.77239 -117.76778 3735 ft 355 kts 165°
2026-05-08 07:04 36.75099 -117.75387 3787 ft 342 kts 145°
2026-05-08 07:04 36.73171 -117.73728 3823 ft 333 kts 147°
2026-05-08 07:05 36.71236 -117.72195 3920 ft 327 kts 148°
2026-05-08 07:05 36.69324 -117.70694 4022 ft 323 kts 147°
2026-05-08 07:05 36.67487 -117.69106 4102 ft 321 kts 144°
2026-05-08 07:05 36.65651 -117.67552 4237 ft 318 kts 150°
2026-05-08 07:06 36.63757 -117.66220 4823 ft 316 kts 151°
2026-05-08 07:06 36.61843 -117.64920 5412 ft 311 kts 152°
2026-05-08 07:06 36.59918 -117.63656 5945 ft 316 kts 153°
2026-05-08 07:06 36.57952 -117.62366 6518 ft 323 kts 152°
2026-05-08 07:07 36.55950 -117.61051 7113 ft 327 kts 153°
2026-05-08 07:07 36.53928 -117.59727 7748 ft 330 kts 153°
2026-05-08 07:07 36.51881 -117.58265 7766 ft 356 kts 146°
2026-05-08 07:07 36.49922 -117.56160 7295 ft 389 kts 136°
2026-05-08 07:08 36.47996 -117.53785 7032 ft 386 kts 136°
2026-05-08 07:08 36.46136 -117.51515 6784 ft 375 kts 136°
2026-05-08 07:08 36.44298 -117.49290 6701 ft 362 kts 136°
2026-05-08 07:08 36.42522 -117.47146 6634 ft 350 kts 136°
2026-05-08 07:09 36.40798 -117.45068 6580 ft 341 kts 136°
2026-05-08 07:09 36.39118 -117.43040 6523 ft 333 kts 136°
2026-05-08 07:09 36.37468 -117.41051 6464 ft 327 kts 136°
2026-05-08 07:09 36.35851 -117.39100 6406 ft 322 kts 136°
2026-05-08 07:10 36.34240 -117.37248 6331 ft 318 kts 142°
2026-05-08 07:10 36.32295 -117.35954 6044 ft 322 kts 164°
2026-05-08 07:10 36.30081 -117.35796 5913 ft 319 kts 187°
2026-05-08 07:10 36.27910 -117.36054 6036 ft 309 kts 182°
2026-05-08 07:11 36.25790 -117.36046 6118 ft 301 kts 179°
2026-05-08 07:11 36.23712 -117.36056 6201 ft 296 kts 181°
2026-05-08 07:11 36.21666 -117.36115 6274 ft 298 kts 181°
2026-05-08 07:11 36.19513 -117.36198 6398 ft 321 kts 182°
2026-05-08 07:12 36.17210 -117.36317 6557 ft 341 kts 182°
2026-05-08 07:12 36.14813 -117.36427 6761 ft 356 kts 182°
2026-05-08 07:12 36.12304 -117.36537 6819 ft 364 kts 182°
2026-05-08 07:12 36.09767 -117.36645 6858 ft 365 kts 182°
2026-05-08 07:13 36.07228 -117.36757 6909 ft 364 kts 182°
2026-05-08 07:13 36.04697 -117.36877 6946 ft 364 kts 183°
2026-05-08 07:13 36.02168 -117.36996 7019 ft 364 kts 183°
2026-05-08 07:13 35.99644 -117.37119 7086 ft 362 kts 183°
2026-05-08 07:14 35.97121 -117.37237 7037 ft 366 kts 183°
2026-05-08 07:14 35.94603 -117.37351 7004 ft 367 kts 182°
2026-05-08 07:14 35.92056 -117.37465 7004 ft 366 kts 183°
2026-05-08 07:14 35.89514 -117.37582 6994 ft 365 kts 183°
2026-05-08 07:15 35.86975 -117.37698 6989 ft 365 kts 183°
2026-05-08 07:15 35.84435 -117.37813 6992 ft 365 kts 183°
2026-05-08 07:15 35.81893 -117.37930 6985 ft 366 kts 183°
2026-05-08 07:15 35.79350 -117.38049 6965 ft 366 kts 183°
2026-05-08 07:16 35.76804 -117.38156 6956 ft 366 kts 182°
2026-05-08 07:16 35.74256 -117.38242 6950 ft 366 kts 182°
2026-05-08 07:16 35.71742 -117.38324 6964 ft 366 kts 182°
2026-05-08 07:16 35.69194 -117.38406 6986 ft 366 kts 182°
2026-05-08 07:17 35.66677 -117.38752 6879 ft 367 kts 198°
2026-05-08 07:17 35.64493 -117.40327 6771 ft 367 kts 226°
2026-05-08 07:17 35.63112 -117.42953 6547 ft 371 kts 252°
2026-05-08 07:17 35.62621 -117.46070 6398 ft 373 kts 262°
2026-05-08 07:18 35.62163 -117.49198 6397 ft 369 kts 257°
2026-05-08 07:18 35.61193 -117.52058 6535 ft 363 kts 237°
2026-05-08 07:18 35.59419 -117.54177 6565 ft 360 kts 213°
2026-05-08 07:18 35.57241 -117.55671 6629 ft 358 kts 210°
2026-05-08 07:19 35.55113 -117.57226 6694 ft 355 kts 212°
2026-05-08 07:19 35.53008 -117.58812 6771 ft 355 kts 213°
2026-05-08 07:19 35.50916 -117.60398 6963 ft 349 kts 212°
2026-05-08 07:19 35.48874 -117.61929 7351 ft 339 kts 213°
2026-05-08 07:20 35.46871 -117.63427 7713 ft 339 kts 212°
2026-05-08 07:20 35.44832 -117.64954 8069 ft 349 kts 213°
2026-05-08 07:20 35.42726 -117.66532 8444 ft 359 kts 212°
2026-05-08 07:20 35.40570 -117.68148 8813 ft 368 kts 213°
2026-05-08 07:21 35.38398 -117.69780 9189 ft 375 kts 212°
2026-05-08 07:21 35.36158 -117.71463 9569 ft 381 kts 213°
2026-05-08 07:21 35.33884 -117.73174 9946 ft 386 kts 213°
2026-05-08 07:21 35.31700 -117.75097 10296 ft 389 kts 221°
2026-05-08 07:22 35.29670 -117.77303 10647 ft 392 kts 224°
2026-05-08 07:22 35.27639 -117.79555 10998 ft 396 kts 221°
2026-05-08 07:22 35.25480 -117.81673 11351 ft 399 kts 217°
2026-05-08 07:22 35.23251 -117.83714 11736 ft 402 kts 217°
2026-05-08 07:23 35.21053 -117.85836 12102 ft 404 kts 219°
2026-05-08 07:23 35.18904 -117.87999 12470 ft 406 kts 219°
2026-05-08 07:23 35.16702 -117.90166 12855 ft 407 kts 218°
2026-05-08 07:23 35.14470 -117.92310 13256 ft 409 kts 218°
2026-05-08 07:24 35.12241 -117.94467 13637 ft 410 kts 218°
2026-05-08 07:24 35.10015 -117.96645 14002 ft 411 kts 218°
2026-05-08 07:24 35.07782 -117.98824 14352 ft 411 kts 218°
2026-05-08 07:24 35.05536 -118.01001 14703 ft 412 kts 218°
2026-05-08 07:25 35.03294 -118.03173 15054 ft 412 kts 218°
2026-05-08 07:25 35.01045 -118.05355 15407 ft 413 kts 218°
2026-05-08 07:25 34.96576 -118.09689 16126 ft 414 kts 218°
2026-05-08 07:26 34.94322 -118.11869 16495 ft 414 kts 218°
2026-05-08 07:26 34.92069 -118.14048 16907 ft 414 kts 218°
2026-05-08 07:26 34.89807 -118.16225 17277 ft 413 kts 216°
2026-05-08 07:26 34.87315 -118.17927 17649 ft 411 kts 198°
2026-05-08 07:27 34.84526 -118.18574 18050 ft 408 kts 179°
2026-05-08 07:27 34.81741 -118.18137 18448 ft 403 kts 161°
2026-05-08 07:27 34.79230 -118.16804 18805 ft 398 kts 150°
2026-05-08 07:27 34.76788 -118.15221 19159 ft 397 kts 149°
2026-05-08 07:28 34.74363 -118.13604 19510 ft 397 kts 149°
2026-05-08 07:28 34.71930 -118.12024 19876 ft 397 kts 149°
2026-05-08 07:28 34.69480 -118.10467 20227 ft 397 kts 150°
2026-05-08 07:28 34.67042 -118.08903 20582 ft 396 kts 149°
2026-05-08 07:29 34.64642 -118.07276 20934 ft 394 kts 143°
2026-05-08 07:29 34.62655 -118.05047 21313 ft 387 kts 124°
2026-05-08 07:29 34.61247 -118.02293 21705 ft 383 kts 116°
2026-05-08 07:29 34.59984 -117.99502 22090 ft 382 kts 115°
2026-05-08 07:30 34.58721 -117.96676 22471 ft 381 kts 116°
2026-05-08 07:30 34.57437 -117.93859 22848 ft 381 kts 116°
2026-05-08 07:30 34.56147 -117.91058 23237 ft 380 kts 116°
2026-05-08 07:30 34.54861 -117.88249 23625 ft 382 kts 116°
2026-05-08 07:31 34.53561 -117.85399 23969 ft 392 kts 116°
2026-05-08 07:31 34.52220 -117.82470 24310 ft 402 kts 116°
2026-05-08 07:31 34.50846 -117.79475 24655 ft 411 kts 116°
2026-05-08 07:31 34.49457 -117.76453 25003 ft 420 kts 116°
2026-05-08 07:32 34.48025 -117.73333 25369 ft 428 kts 116°
2026-05-08 07:32 34.46563 -117.70153 25738 ft 436 kts 116°
2026-05-08 07:32 34.45076 -117.66923 26077 ft 442 kts 117°
2026-05-08 07:32 34.43564 -117.63641 26461 ft 449 kts 117°
2026-05-08 07:33 34.42031 -117.60317 26836 ft 455 kts 117°
2026-05-08 07:33 34.40481 -117.56956 27215 ft 460 kts 117°
2026-05-08 07:33 34.38910 -117.53557 27600 ft 465 kts 117°
2026-05-08 07:33 34.37322 -117.50123 27936 ft 471 kts 117°
2026-05-08 07:34 34.35726 -117.46674 28021 ft 478 kts 117°
2026-05-08 07:34 34.34147 -117.43278 28018 ft 447 kts 117°
2026-05-08 07:34 34.32675 -117.40113 28019 ft 418 kts 116°
2026-05-08 07:35 34.29000 -117.34698 28050 ft 435 kts 144°
2026-05-08 07:35 34.26260 -117.33132 28026 ft 439 kts 161°
2026-05-08 07:35 34.23318 -117.32176 28026 ft 437 kts 164°
2026-05-08 07:36 34.17434 -117.30504 28029 ft 438 kts 164°
2026-05-08 07:36 34.11516 -117.28673 28027 ft 438 kts 164°
2026-05-08 07:37 34.05605 -117.26917 28025 ft 438 kts 164°
2026-05-08 07:37 34.02624 -117.26173 28017 ft 441 kts 175°
2026-05-08 07:37 33.99551 -117.26107 28026 ft 441 kts 173°
2026-05-08 07:37 33.96574 -117.25302 28061 ft 438 kts 159°
2026-05-08 07:38 33.93875 -117.24011 28047 ft 410 kts 153°
2026-05-08 07:38 33.91361 -117.22598 27312 ft 387 kts 151°
2026-05-08 07:38 33.88994 -117.21115 25262 ft 382 kts 148°
2026-05-08 07:38 33.86664 -117.19626 23441 ft 374 kts 149°
2026-05-08 07:39 33.84415 -117.18148 21496 ft 362 kts 147°
2026-05-08 07:39 33.82289 -117.16663 19555 ft 348 kts 146°
2026-05-08 07:39 33.80214 -117.15153 17257 ft 347 kts 145°
2026-05-08 07:39 33.78172 -117.13663 15081 ft 339 kts 146°
2026-05-08 07:40 33.76219 -117.12248 13145 ft 325 kts 146°
2026-05-08 07:40 33.74337 -117.10891 11314 ft 307 kts 147°
2026-05-08 07:40 33.72513 -117.09575 9952 ft 313 kts 147°
2026-05-08 07:40 33.70696 -117.08288 9702 ft 295 kts 148°
2026-05-08 07:41 33.68970 -117.07079 9443 ft 280 kts 148°
2026-05-08 07:41 33.67300 -117.05913 9169 ft 277 kts 148°
2026-05-08 07:41 33.65554 -117.04954 8803 ft 276 kts 163°
2026-05-08 07:41 33.63757 -117.04910 8610 ft 244 kts 191°
2026-05-08 07:42 33.62332 -117.05869 8407 ft 238 kts 224°
2026-05-08 07:42 33.61512 -117.07621 7840 ft 250 kts 256°
2026-05-08 07:42 33.61558 -117.09649 7404 ft 250 kts 289°
2026-05-08 07:42 33.62622 -117.11272 6874 ft 248 kts 330°
2026-05-08 07:43 33.64179 -117.11781 6878 ft 222 kts 356°
2026-05-08 07:43 33.65632 -117.11681 7132 ft 199 kts
2026-05-08 07:43 33.66994 -117.11585 7397 ft 196 kts
2026-05-08 07:43 33.68375 -117.11504 7674 ft 201 kts
2026-05-08 07:44 33.69688 -117.12001 7941 ft 209 kts 328°
2026-05-08 07:44 33.70916 -117.13177 7442 ft 233 kts 323°
2026-05-08 07:44 33.72154 -117.14334 6954 ft 224 kts 322°
2026-05-08 07:44 33.73369 -117.15458 6519 ft 217 kts 323°
2026-05-08 07:45 33.74616 -117.16436 5945 ft 214 kts 330°
2026-05-08 07:45 33.75920 -117.17325 5420 ft 216 kts 330°
2026-05-08 07:45 33.77226 -117.18224 4715 ft 216 kts 329°
2026-05-08 07:45 33.78522 -117.19123 4141 ft 214 kts 329°
2026-05-08 07:46 33.79807 -117.20018 3608 ft 212 kts 329°
2026-05-08 07:46 33.81031 -117.20880 3255 ft 188 kts 329°
2026-05-08 07:46 33.82055 -117.21628 2978 ft 163 kts 328°
2026-05-08 07:46 33.82984 -117.22307 2630 ft 153 kts 328°
2026-05-08 07:47 33.83875 -117.22947 2241 ft 145 kts 329°
2026-05-08 07:47 33.84729 -117.23555 1983 ft 141 kts 328°
2026-05-08 07:47 33.85558 -117.24146 1802 ft 136 kts 329°
2026-05-08 07:47 33.86327 -117.24703 1625 ft 121 kts 329°
2026-05-08 07:48 33.87006 -117.25187 1517 ft 97 kts 329°
2026-05-08 07:48 33.87422 -117.25482 1514 ft 56 kts 329°
2026-05-08 07:48 33.87743 -117.25710 1517 ft 51 kts 329°
2026-05-08 07:48 33.88023 -117.25909 1519 ft 44 kts 329°
2026-05-08 07:49 33.88245 -117.26067 1513 ft 23 kts 329°
2026-05-08 07:49 33.88361 -117.26045 1515 ft 19 kts 73°
2026-05-08 07:49 33.88368 -117.25887 1514 ft 18 kts 89°
2026-05-08 07:49 33.88369 -117.25742 1519 ft 16 kts 89°
2026-05-08 07:50 33.88370 -117.25606 1518 ft 17 kts 89°
2026-05-08 07:50 33.88372 -117.25458 1515 ft 19 kts 89°
2026-05-08 07:50 33.88400 -117.25315 1513 ft 16 kts 45°
2026-05-08 07:50 33.88492 -117.25238 1515 ft 16 kts 31°
2026-05-08 07:51 33.88554 -117.25179 1515 ft 6 kts 76°
2026-05-08 07:51 33.88536 -117.25145 1511 ft 6 kts 136°
2026-05-08 07:51 33.88524 -117.25103 1515 ft 6 kts 74°
2026-05-08 07:51 33.88550 -117.25063 1513 ft 7 kts 46°
2026-05-08 07:52 33.88593 -117.25011 1513 ft 12 kts 45°
2026-05-08 07:52 33.88663 -117.24927 1511 ft 15 kts 46°
2026-05-08 07:52 33.88736 -117.24921 1511 ft 10 kts 323°
2026-05-08 07:52 33.88759 -117.24952 1514 ft 0 kts 313°